Year,Month,Day,Hour,Minute,Value (Times are PST for temperature in C)
2010,05,30,00,00,7.30
2010,05,30,00,01,7.30
2010,05,30,00,02,7.30
2010,05,30,00,03,7.30
2010,05,30,00,04,7.40
2010,05,30,00,05,7.50
2010,05,30,00,06,7.50
2010,05,30,00,07,7.50
2010,05,30,00,08,7.50
2010,05,30,00,09,7.50
2010,05,30,00,10,7.50
2010,05,30,00,11,7.50
2010,05,30,00,12,7.50
2010,05,30,00,13,7.50
2010,05,30,00,14,7.50
2010,05,30,00,15,7.50
2010,05,30,00,16,7.50
2010,05,30,00,17,7.40
2010,05,30,00,18,7.40
2010,05,30,00,19,7.30
2010,05,30,00,20,7.30
2010,05,30,00,21,7.20
2010,05,30,00,22,7.10
2010,05,30,00,23,7.10
2010,05,30,00,24,7.00
2010,05,30,00,25,6.90
2010,05,30,00,26,6.90
2010,05,30,00,27,6.80
2010,05,30,00,28,6.80
2010,05,30,00,29,6.80
2010,05,30,00,30,6.70
2010,05,30,00,31,6.70
2010,05,30,00,32,6.60
2010,05,30,00,33,6.60
2010,05,30,00,34,6.60
2010,05,30,00,35,6.60
2010,05,30,00,36,6.60
2010,05,30,00,37,6.40
2010,05,30,00,38,6.40
2010,05,30,00,39,6.40
2010,05,30,00,40,6.40
2010,05,30,00,41,6.40
2010,05,30,00,42,6.30
2010,05,30,00,43,6.30
2010,05,30,00,44,6.30
2010,05,30,00,45,6.30
2010,05,30,00,46,6.30
2010,05,30,00,47,6.30
2010,05,30,00,48,6.20
2010,05,30,00,49,6.20
2010,05,30,00,50,6.10
2010,05,30,00,51,6.10
2010,05,30,00,52,6.00
2010,05,30,00,53,5.90
2010,05,30,00,54,5.90
2010,05,30,00,55,5.80
2010,05,30,00,56,5.80
2010,05,30,00,57,5.70
2010,05,30,00,58,5.70
2010,05,30,00,59,5.70
2010,05,30,01,00,5.70
2010,05,30,01,01,5.70
2010,05,30,01,02,5.70
2010,05,30,01,03,5.70
2010,05,30,01,04,5.70
2010,05,30,01,05,5.70
2010,05,30,01,06,5.70
2010,05,30,01,07,5.70
2010,05,30,01,08,5.60
2010,05,30,01,09,5.60
2010,05,30,01,10,5.60
2010,05,30,01,11,5.50
2010,05,30,01,12,5.50
2010,05,30,01,13,5.50
2010,05,30,01,14,5.50
2010,05,30,01,15,5.50
2010,05,30,01,16,5.40
2010,05,30,01,17,5.40
2010,05,30,01,18,5.40
2010,05,30,01,19,5.40
2010,05,30,01,20,5.30
2010,05,30,01,21,5.30
2010,05,30,01,22,5.30
2010,05,30,01,23,5.30
2010,05,30,01,24,5.30
2010,05,30,01,25,5.30
2010,05,30,01,26,5.30
2010,05,30,01,27,5.20
2010,05,30,01,28,5.20
2010,05,30,01,29,5.20
2010,05,30,01,30,5.10
2010,05,30,01,31,5.10
2010,05,30,01,32,5.10
2010,05,30,01,33,5.10
2010,05,30,01,34,5.10
2010,05,30,01,35,5.10
2010,05,30,01,36,5.10
2010,05,30,01,37,5.10
2010,05,30,01,38,5.10
2010,05,30,01,39,5.10
2010,05,30,01,40,5.10
2010,05,30,01,41,5.10
2010,05,30,01,42,5.10
2010,05,30,01,43,5.10
2010,05,30,01,44,5.00
2010,05,30,01,45,4.90
2010,05,30,01,46,4.90
2010,05,30,01,47,4.90
2010,05,30,01,48,4.90
2010,05,30,01,49,4.90
2010,05,30,01,50,4.90
2010,05,30,01,51,4.90
2010,05,30,01,52,4.90
2010,05,30,01,53,4.90
2010,05,30,01,54,4.90
2010,05,30,01,55,4.90
2010,05,30,01,56,4.90
2010,05,30,01,57,4.90
2010,05,30,01,58,4.90
2010,05,30,01,59,4.80
2010,05,30,02,00,4.80
2010,05,30,02,01,4.70
2010,05,30,02,02,4.70
2010,05,30,02,03,4.60
2010,05,30,02,04,4.60
2010,05,30,02,05,4.60
2010,05,30,02,06,4.60
2010,05,30,02,07,4.60
2010,05,30,02,08,4.50
2010,05,30,02,09,4.50
2010,05,30,02,10,4.50
2010,05,30,02,11,4.50
2010,05,30,02,12,4.50
2010,05,30,02,13,4.50
2010,05,30,02,14,4.50
2010,05,30,02,15,4.50
2010,05,30,02,16,4.50
2010,05,30,02,17,4.50
2010,05,30,02,18,4.50
2010,05,30,02,19,4.50
2010,05,30,02,20,4.50
2010,05,30,02,21,4.50
2010,05,30,02,22,4.50
2010,05,30,02,23,4.50
2010,05,30,02,24,4.50
2010,05,30,02,25,4.40
2010,05,30,02,26,4.40
2010,05,30,02,27,4.30
2010,05,30,02,28,4.30
2010,05,30,02,29,4.30
2010,05,30,02,30,4.30
2010,05,30,02,31,4.30
2010,05,30,02,32,4.30
2010,05,30,02,33,4.30
2010,05,30,02,34,4.30
2010,05,30,02,35,4.30
2010,05,30,02,36,4.30
2010,05,30,02,37,4.30
2010,05,30,02,38,4.20
2010,05,30,02,39,4.20
2010,05,30,02,40,4.20
2010,05,30,02,41,4.30
2010,05,30,02,42,4.30
2010,05,30,02,43,4.30
2010,05,30,02,44,4.30
2010,05,30,02,45,4.20
2010,05,30,02,46,4.20
2010,05,30,02,47,4.20
2010,05,30,02,48,4.20
2010,05,30,02,49,4.20
2010,05,30,02,50,4.30
2010,05,30,02,51,4.30
2010,05,30,02,52,4.30
2010,05,30,02,53,4.30
2010,05,30,02,54,4.30
2010,05,30,02,55,4.30
2010,05,30,02,56,4.30
2010,05,30,02,57,4.30
2010,05,30,02,58,4.30
2010,05,30,02,59,4.30
2010,05,30,03,00,4.30
2010,05,30,03,01,4.30
2010,05,30,03,02,4.30
2010,05,30,03,03,4.30
2010,05,30,03,04,4.30
2010,05,30,03,05,4.30
2010,05,30,03,06,4.30
2010,05,30,03,07,4.30
2010,05,30,03,08,4.40
2010,05,30,03,09,4.40
2010,05,30,03,10,4.40
2010,05,30,03,11,4.40
2010,05,30,03,12,4.40
2010,05,30,03,13,4.40
2010,05,30,03,14,4.40
2010,05,30,03,15,4.40
2010,05,30,03,16,4.30
2010,05,30,03,17,4.30
2010,05,30,03,18,4.40
2010,05,30,03,19,4.40
2010,05,30,03,20,4.30
2010,05,30,03,21,4.30
2010,05,30,03,22,4.30
2010,05,30,03,23,4.30
2010,05,30,03,24,4.30
2010,05,30,03,25,4.20
2010,05,30,03,26,4.20
2010,05,30,03,27,4.20
2010,05,30,03,28,4.20
2010,05,30,03,29,4.20
2010,05,30,03,30,4.20
2010,05,30,03,31,4.10
2010,05,30,03,32,4.10
2010,05,30,03,33,4.10
2010,05,30,03,34,4.10
2010,05,30,03,35,4.10
2010,05,30,03,36,4.10
2010,05,30,03,37,4.10
2010,05,30,03,38,4.10
2010,05,30,03,39,4.00
2010,05,30,03,40,4.00
2010,05,30,03,41,4.00
2010,05,30,03,42,4.00
2010,05,30,03,43,4.00
2010,05,30,03,44,4.00
2010,05,30,03,45,4.00
2010,05,30,03,46,4.00
2010,05,30,03,47,3.90
2010,05,30,03,48,3.90
2010,05,30,03,49,3.90
2010,05,30,03,50,3.90
2010,05,30,03,51,4.00
2010,05,30,03,52,4.00
2010,05,30,03,53,4.00
2010,05,30,03,54,4.00
2010,05,30,03,55,4.00
2010,05,30,03,56,4.00
2010,05,30,03,57,3.90
2010,05,30,03,58,3.90
2010,05,30,03,59,3.90
2010,05,30,04,00,3.90
2010,05,30,04,01,3.90
2010,05,30,04,02,4.00
2010,05,30,04,03,4.00
2010,05,30,04,04,4.00
2010,05,30,04,05,4.00
2010,05,30,04,06,4.00
2010,05,30,04,07,4.00
2010,05,30,04,08,4.00
2010,05,30,04,09,4.00
2010,05,30,04,10,4.00
2010,05,30,04,11,4.00
2010,05,30,04,12,4.00
2010,05,30,04,13,4.00
2010,05,30,04,14,4.10
2010,05,30,04,15,4.10
2010,05,30,04,16,4.20
2010,05,30,04,17,4.20
2010,05,30,04,18,4.20
2010,05,30,04,19,4.20
2010,05,30,04,20,4.20
2010,05,30,04,21,4.20
2010,05,30,04,22,4.20
2010,05,30,04,23,4.30
2010,05,30,04,24,4.30
2010,05,30,04,25,4.30
2010,05,30,04,26,4.30
2010,05,30,04,27,4.40
2010,05,30,04,28,4.40
2010,05,30,04,29,4.40
2010,05,30,04,30,4.40
2010,05,30,04,31,4.40
2010,05,30,04,32,4.40
2010,05,30,04,33,4.40
2010,05,30,04,34,4.40
2010,05,30,04,35,4.40
2010,05,30,04,36,4.40
2010,05,30,04,37,4.40
2010,05,30,04,38,4.40
2010,05,30,04,39,4.40
2010,05,30,04,40,4.30
2010,05,30,04,41,4.30
2010,05,30,04,42,4.30
2010,05,30,04,43,4.30
2010,05,30,04,44,4.30
2010,05,30,04,45,4.30
2010,05,30,04,46,4.30
2010,05,30,04,47,4.30
2010,05,30,04,48,4.30
2010,05,30,04,49,4.30
2010,05,30,04,50,4.20
2010,05,30,04,51,4.30
2010,05,30,04,52,4.30
2010,05,30,04,53,4.30
2010,05,30,04,54,4.30
2010,05,30,04,55,4.30
2010,05,30,04,56,4.30
2010,05,30,04,57,4.30
2010,05,30,04,58,4.30
2010,05,30,04,59,4.30
2010,05,30,05,00,4.30
2010,05,30,05,01,4.30
2010,05,30,05,02,4.30
2010,05,30,05,03,4.30
2010,05,30,05,04,4.30
2010,05,30,05,05,4.30
2010,05,30,05,06,4.30
2010,05,30,05,07,4.30
2010,05,30,05,08,4.40
2010,05,30,05,09,4.40
2010,05,30,05,10,4.40
2010,05,30,05,11,4.40
2010,05,30,05,12,4.40
2010,05,30,05,13,4.40
2010,05,30,05,14,4.40
2010,05,30,05,15,4.40
2010,05,30,05,16,4.40
2010,05,30,05,17,4.40
2010,05,30,05,18,4.40
2010,05,30,05,19,4.40
2010,05,30,05,20,4.40
2010,05,30,05,21,4.40
2010,05,30,05,22,4.40
2010,05,30,05,23,4.40
2010,05,30,05,24,4.40
2010,05,30,05,25,4.40
2010,05,30,05,26,4.40
2010,05,30,05,27,4.40
2010,05,30,05,28,4.40
2010,05,30,05,29,4.40
2010,05,30,05,30,4.40
2010,05,30,05,31,4.40
2010,05,30,05,32,4.40
2010,05,30,05,33,4.40
2010,05,30,05,34,4.40
2010,05,30,05,35,4.40
2010,05,30,05,36,4.50
2010,05,30,05,37,4.50
2010,05,30,05,38,4.50
2010,05,30,05,39,4.50
2010,05,30,05,40,4.50
2010,05,30,05,41,4.50
2010,05,30,05,42,4.60
2010,05,30,05,43,4.60
2010,05,30,05,44,4.60
2010,05,30,05,45,4.60
2010,05,30,05,46,4.60
2010,05,30,05,47,4.60
2010,05,30,05,48,4.60
2010,05,30,05,49,4.60
2010,05,30,05,50,4.70
2010,05,30,05,51,4.70
2010,05,30,05,52,4.70
2010,05,30,05,53,4.70
2010,05,30,05,54,4.80
2010,05,30,05,55,4.80
2010,05,30,05,56,4.80
2010,05,30,05,57,4.80
2010,05,30,05,58,4.80
2010,05,30,05,59,4.80
2010,05,30,06,00,4.80
2010,05,30,06,01,4.90
2010,05,30,06,02,4.90
2010,05,30,06,03,4.90
2010,05,30,06,04,4.90
2010,05,30,06,05,4.90
2010,05,30,06,06,4.90
2010,05,30,06,07,4.90
2010,05,30,06,08,4.90
2010,05,30,06,09,4.90
2010,05,30,06,10,4.90
2010,05,30,06,11,4.90
2010,05,30,06,12,4.90
2010,05,30,06,13,4.90
2010,05,30,06,14,4.90
2010,05,30,06,15,4.90
2010,05,30,06,16,4.90
2010,05,30,06,17,4.90
2010,05,30,06,18,5.10
2010,05,30,06,19,5.10
2010,05,30,06,20,5.10
2010,05,30,06,21,5.10
2010,05,30,06,22,5.10
2010,05,30,06,23,5.10
2010,05,30,06,24,5.10
2010,05,30,06,25,5.20
2010,05,30,06,26,5.20
2010,05,30,06,27,5.20
2010,05,30,06,28,5.30
2010,05,30,06,29,5.30
2010,05,30,06,30,5.30
2010,05,30,06,31,5.30
2010,05,30,06,32,5.30
2010,05,30,06,33,5.30
2010,05,30,06,34,5.30
2010,05,30,06,35,5.30
2010,05,30,06,36,5.40
2010,05,30,06,37,5.40
2010,05,30,06,38,5.40
2010,05,30,06,39,5.50
2010,05,30,06,40,5.50
2010,05,30,06,41,5.50
2010,05,30,06,42,5.50
2010,05,30,06,43,5.60
2010,05,30,06,44,5.60
2010,05,30,06,45,5.70
2010,05,30,06,46,5.70
2010,05,30,06,47,5.70
2010,05,30,06,48,5.70
2010,05,30,06,49,5.70
2010,05,30,06,50,5.70
2010,05,30,06,51,5.70
2010,05,30,06,52,5.70
2010,05,30,06,53,5.70
2010,05,30,06,54,5.70
2010,05,30,06,55,5.70
2010,05,30,06,56,5.70
2010,05,30,06,57,5.70
2010,05,30,06,58,5.70
2010,05,30,06,59,5.70
2010,05,30,07,00,5.80
2010,05,30,07,01,5.80
2010,05,30,07,02,5.80
2010,05,30,07,03,5.80
2010,05,30,07,04,5.90
2010,05,30,07,05,5.90
2010,05,30,07,06,5.90
2010,05,30,07,07,5.90
2010,05,30,07,08,5.90
2010,05,30,07,09,6.00
2010,05,30,07,10,6.00
2010,05,30,07,11,6.00
2010,05,30,07,12,6.10
2010,05,30,07,13,6.10
2010,05,30,07,14,6.10
2010,05,30,07,15,6.20
2010,05,30,07,16,6.20
2010,05,30,07,17,6.20
2010,05,30,07,18,6.20
2010,05,30,07,19,6.20
2010,05,30,07,20,6.20
2010,05,30,07,21,6.20
2010,05,30,07,22,6.20
2010,05,30,07,23,6.20
2010,05,30,07,24,6.20
2010,05,30,07,25,6.20
2010,05,30,07,26,6.30
2010,05,30,07,27,6.30
2010,05,30,07,28,6.30
2010,05,30,07,29,6.30
2010,05,30,07,30,6.40
2010,05,30,07,31,6.40
2010,05,30,07,32,6.40
2010,05,30,07,33,6.40
2010,05,30,07,34,6.40
2010,05,30,07,35,6.40
2010,05,30,07,36,6.50
2010,05,30,07,37,6.60
2010,05,30,07,38,6.60
2010,05,30,07,39,6.60
2010,05,30,07,40,6.60
2010,05,30,07,41,6.60
2010,05,30,07,42,6.60
2010,05,30,07,43,6.70
2010,05,30,07,44,6.70
2010,05,30,07,45,6.70
2010,05,30,07,46,6.80
2010,05,30,07,47,6.80
2010,05,30,07,48,6.80
2010,05,30,07,49,6.90
2010,05,30,07,50,6.90
2010,05,30,07,51,7.00
2010,05,30,07,52,7.00
2010,05,30,07,53,7.10
2010,05,30,07,54,7.10
2010,05,30,07,55,7.20
2010,05,30,07,56,7.20
2010,05,30,07,57,7.30
2010,05,30,07,58,7.30
2010,05,30,07,59,7.30
2010,05,30,08,00,7.40
2010,05,30,08,01,7.40
2010,05,30,08,02,7.40
2010,05,30,08,03,7.50
2010,05,30,08,04,7.50
2010,05,30,08,05,7.60
2010,05,30,08,06,7.60
2010,05,30,08,07,7.60
2010,05,30,08,08,7.70
2010,05,30,08,09,7.70
2010,05,30,08,10,7.70
2010,05,30,08,11,7.80
2010,05,30,08,12,7.80
2010,05,30,08,13,7.80
2010,05,30,08,14,7.90
2010,05,30,08,15,8.00
2010,05,30,08,16,8.10
2010,05,30,08,17,8.10
2010,05,30,08,18,8.20
2010,05,30,08,19,8.20
2010,05,30,08,20,8.20
2010,05,30,08,21,8.30
2010,05,30,08,22,8.30
2010,05,30,08,23,8.40
2010,05,30,08,24,8.40
2010,05,30,08,25,8.40
2010,05,30,08,26,8.50
2010,05,30,08,27,8.50
2010,05,30,08,28,8.50
2010,05,30,08,29,8.60
2010,05,30,08,30,8.60
2010,05,30,08,31,8.60
2010,05,30,08,32,8.50
2010,05,30,08,33,8.50
2010,05,30,08,34,8.50
2010,05,30,08,35,8.50
2010,05,30,08,36,8.50
2010,05,30,08,37,8.50
2010,05,30,08,38,8.50
2010,05,30,08,39,8.50
2010,05,30,08,40,8.50
2010,05,30,08,41,8.50
2010,05,30,08,42,8.50
2010,05,30,08,43,8.60
2010,05,30,08,44,8.60
2010,05,30,08,45,8.60
2010,05,30,08,46,8.60
2010,05,30,08,47,8.70
2010,05,30,08,48,8.70
2010,05,30,08,49,8.70
2010,05,30,08,50,8.80
2010,05,30,08,51,8.90
2010,05,30,08,52,8.90
2010,05,30,08,53,9.00
2010,05,30,08,54,9.10
2010,05,30,08,55,9.20
2010,05,30,08,56,9.20
2010,05,30,08,57,9.20
2010,05,30,08,58,9.30
2010,05,30,08,59,9.30
2010,05,30,09,00,9.30
2010,05,30,09,01,9.30
2010,05,30,09,02,9.30
2010,05,30,09,03,9.40
2010,05,30,09,04,9.40
2010,05,30,09,05,9.40
2010,05,30,09,06,9.50
2010,05,30,09,07,9.60
2010,05,30,09,08,9.60
2010,05,30,09,09,9.70
2010,05,30,09,10,9.70
2010,05,30,09,11,9.70
2010,05,30,09,12,9.80
2010,05,30,09,13,9.80
2010,05,30,09,14,9.80
2010,05,30,09,15,9.80
2010,05,30,09,16,9.80
2010,05,30,09,17,9.80
2010,05,30,09,18,9.90
2010,05,30,09,19,9.90
2010,05,30,09,20,9.90
2010,05,30,09,21,10.00
2010,05,30,09,22,10.10
2010,05,30,09,23,10.10
2010,05,30,09,24,10.10
2010,05,30,09,25,10.20
2010,05,30,09,26,10.30
2010,05,30,09,27,10.40
2010,05,30,09,28,10.40
2010,05,30,09,29,10.30
2010,05,30,09,30,10.30
2010,05,30,09,31,10.30
2010,05,30,09,32,10.30
2010,05,30,09,33,10.30
2010,05,30,09,34,10.40
2010,05,30,09,35,10.40
2010,05,30,09,36,10.50
2010,05,30,09,37,10.60
2010,05,30,09,38,10.60
2010,05,30,09,39,10.70
2010,05,30,09,40,10.80
2010,05,30,09,41,10.80
2010,05,30,09,42,10.80
2010,05,30,09,43,10.90
2010,05,30,09,44,10.90
2010,05,30,09,45,10.90
2010,05,30,09,46,10.90
2010,05,30,09,47,10.90
2010,05,30,09,48,10.90
2010,05,30,09,49,10.90
2010,05,30,09,50,10.70
2010,05,30,09,51,10.60
2010,05,30,09,52,10.40
2010,05,30,09,53,10.40
2010,05,30,09,54,10.40
2010,05,30,09,55,10.50
2010,05,30,09,56,10.50
2010,05,30,09,57,10.40
2010,05,30,09,58,10.60
2010,05,30,09,59,10.60
2010,05,30,10,00,10.60
2010,05,30,10,01,10.70
2010,05,30,10,02,10.70
2010,05,30,10,03,10.70
2010,05,30,10,04,10.70
2010,05,30,10,05,10.70
2010,05,30,10,06,10.60
2010,05,30,10,07,10.60
2010,05,30,10,08,10.70
2010,05,30,10,09,10.70
2010,05,30,10,10,10.60
2010,05,30,10,11,10.60
2010,05,30,10,12,10.60
2010,05,30,10,13,10.60
2010,05,30,10,14,10.60
2010,05,30,10,15,10.60
2010,05,30,10,16,10.60
2010,05,30,10,17,10.60
2010,05,30,10,18,10.60
2010,05,30,10,19,10.60
2010,05,30,10,20,10.60
2010,05,30,10,21,10.60
2010,05,30,10,22,10.70
2010,05,30,10,23,10.70
2010,05,30,10,24,10.70
2010,05,30,10,25,10.70
2010,05,30,10,26,10.70
2010,05,30,10,27,10.70
2010,05,30,10,28,10.70
2010,05,30,10,29,10.70
2010,05,30,10,30,10.80
2010,05,30,10,31,10.80
2010,05,30,10,32,10.70
2010,05,30,10,33,10.70
2010,05,30,10,34,10.80
2010,05,30,10,35,10.70
2010,05,30,10,36,10.80
2010,05,30,10,37,10.90
2010,05,30,10,38,11.00
2010,05,30,10,39,10.90
2010,05,30,10,40,10.90
2010,05,30,10,41,10.90
2010,05,30,10,42,10.90
2010,05,30,10,43,10.90
2010,05,30,10,44,10.90
2010,05,30,10,45,10.90
2010,05,30,10,46,10.90
2010,05,30,10,47,11.00
2010,05,30,10,48,11.10
2010,05,30,10,49,11.10
2010,05,30,10,50,11.00
2010,05,30,10,51,10.90
2010,05,30,10,52,10.80
2010,05,30,10,53,10.80
2010,05,30,10,54,10.80
2010,05,30,10,55,10.80
2010,05,30,10,56,10.90
2010,05,30,10,57,10.90
2010,05,30,10,58,10.80
2010,05,30,10,59,10.70
2010,05,30,11,00,10.70
2010,05,30,11,01,10.70
2010,05,30,11,02,10.70
2010,05,30,11,03,10.80
2010,05,30,11,04,10.80
2010,05,30,11,05,10.80
2010,05,30,11,06,10.80
2010,05,30,11,07,10.80
2010,05,30,11,08,10.80
2010,05,30,11,09,10.80
2010,05,30,11,10,10.70
2010,05,30,11,11,10.70
2010,05,30,11,12,10.80
2010,05,30,11,13,10.70
2010,05,30,11,14,10.70
2010,05,30,11,15,10.60
2010,05,30,11,16,10.60
2010,05,30,11,17,10.60
2010,05,30,11,18,10.60
2010,05,30,11,19,10.60
2010,05,30,11,20,10.60
2010,05,30,11,21,10.70
2010,05,30,11,22,10.70
2010,05,30,11,23,10.80
2010,05,30,11,24,10.70
2010,05,30,11,25,10.70
2010,05,30,11,26,10.70
2010,05,30,11,27,10.70
2010,05,30,11,28,10.70
2010,05,30,11,29,10.70
2010,05,30,11,30,10.70
2010,05,30,11,31,10.70
2010,05,30,11,32,10.70
2010,05,30,11,33,10.70
2010,05,30,11,34,10.80
2010,05,30,11,35,10.90
2010,05,30,11,36,10.90
2010,05,30,11,37,10.90
2010,05,30,11,38,10.90
2010,05,30,11,39,10.90
2010,05,30,11,40,10.90
2010,05,30,11,41,10.90
2010,05,30,11,42,10.90
2010,05,30,11,43,10.90
2010,05,30,11,44,10.90
2010,05,30,11,45,10.90
2010,05,30,11,46,10.90
2010,05,30,11,47,10.90
2010,05,30,11,48,11.00
2010,05,30,11,49,11.10
2010,05,30,11,50,11.10
2010,05,30,11,51,11.20
2010,05,30,11,52,11.10
2010,05,30,11,53,11.10
2010,05,30,11,54,11.10
2010,05,30,11,55,11.10
2010,05,30,11,56,11.10
2010,05,30,11,57,11.10
2010,05,30,11,58,11.10
2010,05,30,11,59,11.10
2010,05,30,12,00,11.10
2010,05,30,12,01,11.10
2010,05,30,12,02,11.10
2010,05,30,12,03,11.10
2010,05,30,12,04,11.00
2010,05,30,12,05,11.00
2010,05,30,12,06,11.10
2010,05,30,12,07,11.10
2010,05,30,12,08,11.00
2010,05,30,12,09,10.90
2010,05,30,12,10,10.90
2010,05,30,12,11,11.00
2010,05,30,12,12,11.10
2010,05,30,12,13,11.10
2010,05,30,12,14,11.10
2010,05,30,12,15,11.10
2010,05,30,12,16,11.10
2010,05,30,12,17,11.10
2010,05,30,12,18,11.00
2010,05,30,12,19,10.90
2010,05,30,12,20,10.90
2010,05,30,12,21,10.90
2010,05,30,12,22,11.00
2010,05,30,12,23,10.90
2010,05,30,12,24,10.90
2010,05,30,12,25,10.90
2010,05,30,12,26,11.10
2010,05,30,12,27,11.10
2010,05,30,12,28,11.10
2010,05,30,12,29,11.20
2010,05,30,12,30,11.30
2010,05,30,12,31,11.20
2010,05,30,12,32,11.20
2010,05,30,12,33,11.10
2010,05,30,12,34,11.10
2010,05,30,12,35,11.10
2010,05,30,12,36,11.10
2010,05,30,12,37,11.10
2010,05,30,12,38,11.10
2010,05,30,12,39,11.10
2010,05,30,12,40,11.10
2010,05,30,12,41,11.10
2010,05,30,12,42,11.10
2010,05,30,12,43,11.10
2010,05,30,12,44,11.10
2010,05,30,12,45,11.10
2010,05,30,12,46,11.10
2010,05,30,12,47,11.10
2010,05,30,12,48,11.10
2010,05,30,12,49,11.20
2010,05,30,12,50,11.30
2010,05,30,12,51,11.30
2010,05,30,12,52,11.40
2010,05,30,12,53,11.40
2010,05,30,12,54,11.40
2010,05,30,12,55,11.40
2010,05,30,12,56,11.40
2010,05,30,12,57,11.30
2010,05,30,12,58,11.30
2010,05,30,12,59,11.30
2010,05,30,13,00,11.20
2010,05,30,13,01,11.20
2010,05,30,13,02,11.20
2010,05,30,13,03,11.30
2010,05,30,13,04,11.30
2010,05,30,13,05,11.30
2010,05,30,13,06,11.30
2010,05,30,13,07,11.30
2010,05,30,13,08,11.40
2010,05,30,13,09,11.40
2010,05,30,13,10,11.40
2010,05,30,13,11,11.50
2010,05,30,13,12,11.50
2010,05,30,13,13,11.40
2010,05,30,13,14,11.40
2010,05,30,13,15,11.40
2010,05,30,13,16,11.30
2010,05,30,13,17,11.30
2010,05,30,13,18,11.30
2010,05,30,13,19,11.30
2010,05,30,13,20,11.30
2010,05,30,13,21,11.30
2010,05,30,13,22,11.30
2010,05,30,13,23,11.20
2010,05,30,13,24,11.30
2010,05,30,13,25,11.20
2010,05,30,13,26,11.10
2010,05,30,13,27,11.10
2010,05,30,13,28,11.10
2010,05,30,13,29,11.10
2010,05,30,13,30,11.10
2010,05,30,13,31,11.10
2010,05,30,13,32,11.10
2010,05,30,13,33,11.10
2010,05,30,13,34,11.10
2010,05,30,13,35,11.10
2010,05,30,13,36,11.20
2010,05,30,13,37,11.20
2010,05,30,13,38,11.20
2010,05,30,13,39,11.20
2010,05,30,13,40,11.10
2010,05,30,13,41,11.20
2010,05,30,13,42,11.20
2010,05,30,13,43,11.30
2010,05,30,13,44,11.20
2010,05,30,13,45,11.20
2010,05,30,13,46,11.20
2010,05,30,13,47,11.20
2010,05,30,13,48,11.30
2010,05,30,13,49,11.30
2010,05,30,13,50,11.30
2010,05,30,13,51,11.30
2010,05,30,13,52,11.40
2010,05,30,13,53,11.40
2010,05,30,13,54,11.40
2010,05,30,13,55,11.40
2010,05,30,13,56,11.30
2010,05,30,13,57,11.30
2010,05,30,13,58,11.30
2010,05,30,13,59,11.20
2010,05,30,14,00,11.20
2010,05,30,14,01,11.20
2010,05,30,14,02,11.30
2010,05,30,14,03,11.30
2010,05,30,14,04,11.20
2010,05,30,14,05,11.20
2010,05,30,14,06,11.20
2010,05,30,14,07,11.30
2010,05,30,14,08,11.30
2010,05,30,14,09,11.40
2010,05,30,14,10,11.40
2010,05,30,14,11,11.30
2010,05,30,14,12,11.30
2010,05,30,14,13,11.20
2010,05,30,14,14,11.20
2010,05,30,14,15,11.20
2010,05,30,14,16,11.30
2010,05,30,14,17,11.30
2010,05,30,14,18,11.40
2010,05,30,14,19,11.40
2010,05,30,14,20,11.50
2010,05,30,14,21,11.60
2010,05,30,14,22,11.60
2010,05,30,14,23,11.60
2010,05,30,14,24,11.50
2010,05,30,14,25,11.40
2010,05,30,14,26,11.40
2010,05,30,14,27,11.40
2010,05,30,14,28,11.40
2010,05,30,14,29,11.40
2010,05,30,14,30,11.40
2010,05,30,14,31,11.40
2010,05,30,14,32,11.40
2010,05,30,14,33,11.40
2010,05,30,14,34,11.40
2010,05,30,14,35,11.30
2010,05,30,14,36,11.40
2010,05,30,14,37,11.40
2010,05,30,14,38,11.40
2010,05,30,14,39,11.40
2010,05,30,14,40,11.40
2010,05,30,14,41,11.50
2010,05,30,14,42,11.60
2010,05,30,14,43,11.60
2010,05,30,14,44,11.50
2010,05,30,14,45,11.40
2010,05,30,14,46,11.40
2010,05,30,14,47,11.40
2010,05,30,14,48,11.30
2010,05,30,14,49,11.30
2010,05,30,14,50,11.30
2010,05,30,14,51,11.30
2010,05,30,14,52,11.30
2010,05,30,14,53,11.30
2010,05,30,14,54,11.30
2010,05,30,14,55,11.30
2010,05,30,14,56,11.40
2010,05,30,14,57,11.40
2010,05,30,14,58,11.40
2010,05,30,14,59,11.40
2010,05,30,15,00,11.40
2010,05,30,15,01,11.30
2010,05,30,15,02,11.40
2010,05,30,15,03,11.30
2010,05,30,15,04,11.30
2010,05,30,15,05,11.30
2010,05,30,15,06,11.30
2010,05,30,15,07,11.40
2010,05,30,15,08,11.40
2010,05,30,15,09,11.40
2010,05,30,15,10,11.60
2010,05,30,15,11,11.60
2010,05,30,15,12,11.60
2010,05,30,15,13,11.60
2010,05,30,15,14,11.50
2010,05,30,15,15,11.40
2010,05,30,15,16,11.40
2010,05,30,15,17,11.50
2010,05,30,15,18,11.50
2010,05,30,15,19,11.60
2010,05,30,15,20,11.40
2010,05,30,15,21,11.40
2010,05,30,15,22,11.40
2010,05,30,15,23,11.40
2010,05,30,15,24,11.40
2010,05,30,15,25,11.40
2010,05,30,15,26,11.40
2010,05,30,15,27,11.40
2010,05,30,15,28,11.40
2010,05,30,15,29,11.40
2010,05,30,15,30,11.40
2010,05,30,15,31,11.40
2010,05,30,15,32,11.40
2010,05,30,15,33,11.40
2010,05,30,15,34,11.30
2010,05,30,15,35,11.30
2010,05,30,15,36,11.40
2010,05,30,15,37,11.40
2010,05,30,15,38,11.40
2010,05,30,15,39,11.40
2010,05,30,15,40,11.40
2010,05,30,15,41,11.40
2010,05,30,15,42,11.40
2010,05,30,15,43,11.40
2010,05,30,15,44,11.40
2010,05,30,15,45,11.40
2010,05,30,15,46,11.40
2010,05,30,15,47,11.40
2010,05,30,15,48,11.40
2010,05,30,15,49,11.40
2010,05,30,15,50,11.40
2010,05,30,15,51,11.40
2010,05,30,15,52,11.40
2010,05,30,15,53,11.40
2010,05,30,15,54,11.40
2010,05,30,15,55,11.40
2010,05,30,15,56,11.40
2010,05,30,15,57,11.40
2010,05,30,15,58,11.40
2010,05,30,15,59,11.40
2010,05,30,16,00,11.40
2010,05,30,16,01,11.40
2010,05,30,16,02,11.40
2010,05,30,16,03,11.40
2010,05,30,16,04,11.40
2010,05,30,16,05,11.40
2010,05,30,16,06,11.40
2010,05,30,16,07,11.40
2010,05,30,16,08,11.40
2010,05,30,16,09,11.50
2010,05,30,16,10,11.60
2010,05,30,16,11,11.60
2010,05,30,16,12,11.60
2010,05,30,16,13,11.40
2010,05,30,16,14,11.40
2010,05,30,16,15,11.40
2010,05,30,16,16,11.40
2010,05,30,16,17,11.40
2010,05,30,16,18,11.40
2010,05,30,16,19,11.40
2010,05,30,16,20,11.40
2010,05,30,16,21,11.50
2010,05,30,16,22,11.60
2010,05,30,16,23,11.60
2010,05,30,16,24,11.60
2010,05,30,16,25,11.60
2010,05,30,16,26,11.60
2010,05,30,16,27,11.60
2010,05,30,16,28,11.60
2010,05,30,16,29,11.60
2010,05,30,16,30,11.60
2010,05,30,16,31,11.60
2010,05,30,16,32,11.60
2010,05,30,16,33,11.70
2010,05,30,16,34,11.70
2010,05,30,16,35,11.70
2010,05,30,16,36,11.70
2010,05,30,16,37,11.70
2010,05,30,16,38,11.70
2010,05,30,16,39,11.70
2010,05,30,16,40,11.70
2010,05,30,16,41,11.70
2010,05,30,16,42,11.70
2010,05,30,16,43,11.70
2010,05,30,16,44,11.60
2010,05,30,16,45,11.60
2010,05,30,16,46,11.70
2010,05,30,16,47,11.70
2010,05,30,16,48,11.60
2010,05,30,16,49,11.60
2010,05,30,16,50,11.60
2010,05,30,16,51,11.60
2010,05,30,16,52,11.70
2010,05,30,16,53,11.70
2010,05,30,16,54,11.70
2010,05,30,16,55,11.70
2010,05,30,16,56,11.60
2010,05,30,16,57,11.60
2010,05,30,16,58,11.60
2010,05,30,16,59,11.60
2010,05,30,17,00,11.60
2010,05,30,17,01,11.60
2010,05,30,17,02,11.60
2010,05,30,17,03,11.60
2010,05,30,17,04,11.60
2010,05,30,17,05,11.60
2010,05,30,17,06,11.50
2010,05,30,17,07,11.40
2010,05,30,17,08,11.40
2010,05,30,17,09,11.40
2010,05,30,17,10,11.40
2010,05,30,17,11,11.40
2010,05,30,17,12,11.40
2010,05,30,17,13,11.40
2010,05,30,17,14,11.40
2010,05,30,17,15,11.40
2010,05,30,17,16,11.40
2010,05,30,17,17,11.40
2010,05,30,17,18,11.40
2010,05,30,17,19,11.40
2010,05,30,17,20,11.40
2010,05,30,17,21,11.40
2010,05,30,17,22,11.50
2010,05,30,17,23,11.60
2010,05,30,17,24,11.60
2010,05,30,17,25,11.60
2010,05,30,17,26,11.60
2010,05,30,17,27,11.60
2010,05,30,17,28,11.60
2010,05,30,17,29,11.60
2010,05,30,17,30,11.60
2010,05,30,17,31,11.60
2010,05,30,17,32,11.50
2010,05,30,17,33,11.50
2010,05,30,17,34,11.60
2010,05,30,17,35,11.50
2010,05,30,17,36,11.40
2010,05,30,17,37,11.40
2010,05,30,17,38,11.40
2010,05,30,17,39,11.40
2010,05,30,17,40,11.40
2010,05,30,17,41,11.50
2010,05,30,17,42,11.60
2010,05,30,17,43,11.60